STARLINK-11249, 60728

Orbit data source: Space-Track

STARLINK-11249, 60728 is a payload satellite owned by SpaceX/Seattle (US) in LEO that was launched on Wed, 28 Aug 2024 UTC via an FALCON 9 launch vehicle from the Air Force Eastern Test Range (AFETR). Payload-class satellites include a variety of spacecraft equipped with specific instruments for various scientific and technological missions. These include communications satellites like Starlink; space stations such as the ISS; scientific satellites like the Hubble; Earth observation satellites from companies like Planet Labs, Umbra, and HawkEye 360; GPS; miniature CubeSats for education and research; and military/defense satellites.

Loading next visibility...
Identifier
60728, 2024-152J
Orbit
LEO
Country
Flag of USUS
Related business
Manufacturer
SpaceX/Seattle
Mission
Operational Commercial Communications
Bus & Motor
STARLINK V2MD, Unknown motor
Mass
960 kg wet, ~910 kg dry
Launch date (UTC)
2024-08-28 (2 years ago)
Launch vehicle
FALCON 9
Launch site
Air Force Eastern Test Range (AFETR)
Object type
Payload
Rocket body
Debris
Shape & HBR
Box + 2 Pan, 18.1 m
Radar Cross Section
36.964 m², Large (>1 m²)

Expand to show TLE details & history
Last TLE update: 1 day ago

TLE from 1 day ago
0 STARLINK-11249
1 60728U 24152J   26207.27692932  .00002163  00000-0  22705-4 0  9996
2 60728  53.1593 152.9324 0001139 122.1879 237.9250 15.69712577110607
Epoch: 2026-07-26T06:38Z
TLE epoch observation values (Epoch: 2026-07-26T06:38:46.693Z)
Latitude
0.00003°
Longitude
109.2607°
Altitude
361.042 km
Speed
7.694 km/s
True Right ascension
10h 11m 43s
True Declination
0° 00' 00"
Sunlit
Object was in daylight at epoch
Visualization orbit readout
Latitude
Unknown
Longitude
Unknown
Altitude
Unknown
Speed
Unknown
Apparent Right ascension
Unknown
Apparent Declination
Unknown
Sunlit
N/A
Visualization observer readout
Local Sidereal Time
23:12:10
Azimuth
Unknown
Elevation
Unknown
Doppler factor
Unknown
Orbital elements
Apogee altitude
360.748 km
Perigee altitude
359.213 km
Semi-major axis
6,738.117 km
Eccentricity
0.00011
Inclination
53.1593°
RAAN
152.9324°
Arg. of periapsis
122.1879°
True anomaly
237.91394°
Mean anomaly
237.925°
Eccentric anomaly
237.91947°
Mean motion
3.92406 °/min
Orbital period
91.74 mins
BSTAR
0.000022705
Loading maneuver chart data...
Computing Atmospheric mass density...
Loading historical data...
Loading historical data...
Loading historical data...
Loading historical data...
Loading historical data...
Loading historical data...
Loading historical data...

Documentation

Showing up to 5 results
|